| time (UTC) | temp F | wind direction | speed MPH | gust MPH | rain 1hr in | rain 24hr in | rain mn in | humidity % | barometer mb |
| 20260509203416 | 92 | 0.0 | 2.0 | 0.00 | 0.00 | 0.00 | 8 | 1014.7 | |
| 20260509202416 | 92 | 270 | 1.0 | 4.0 | 0.00 | 0.00 | 0.00 | 8 | 1015.1 |
| 20260509201416 | 92 | 203 | 3.0 | 6.0 | 0.00 | 0.00 | 0.00 | 9 | 1015.4 |
| 20260509200416 | 90 | 248 | 1.0 | 4.0 | 0.00 | 0.00 | 0.00 | 9 | 1015.2 |
| 20260509195456 | 90 | 0.0 | 0.0 | 0.00 | 0.00 | 0.00 | 10 | 1015.3 | |
| 20260509194416 | 91 | 0.0 | 3.0 | 0.00 | 0.00 | 0.00 | 10 | 1015.7 | |
| 20260509193416 | 90 | 248 | 1.0 | 5.0 | 0.00 | 0.00 | 0.00 | 11 | 1015.6 |
| 20260509192416 | 91 | 0.0 | 2.0 | 0.00 | 0.00 | 0.00 | 11 | 1016.0 | |
| 20260509191436 | 89 | 0.0 | 0.0 | 0.00 | 0.00 | 0.00 | 12 | 1015.8 | |
| 20260509190416 | 87 | 90 | 1.0 | 3.0 | 0.00 | 0.00 | 0.00 | 12 | 1015.6 |
| 20260509185416 | 89 | 225 | 2.0 | 8.0 | 0.00 | 0.00 | 0.00 | 12 | 1016.1 |
| 20260509184416 | 87 | 225 | 3.0 | 7.0 | 0.00 | 0.00 | 0.00 | 13 | 1016.0 |
| 20260509183416 | 88 | 0.0 | 0.0 | 0.00 | 0.00 | 0.00 | 13 | 1016.2 | |
| 20260509182416 | 87 | 0.0 | 2.0 | 0.00 | 0.00 | 0.00 | 13 | 1016.3 | |
| 20260509181416 | 85 | 0.0 | 1.0 | 0.00 | 0.00 | 0.00 | 13 | 1016.3 | |
| 20260509180416 | 85 | 158 | 2.0 | 3.0 | 0.00 | 0.00 | 0.00 | 14 | 1016.4 |
| 20260509175416 | 85 | 203 | 2.0 | 3.0 | 0.00 | 0.00 | 0.00 | 14 | 1016.5 |
| 20260509174436 | 84 | 0.0 | 2.0 | 0.00 | 0.00 | 0.00 | 14 | 1016.7 | |
| 20260509173416 | 83 | 203 | 3.0 | 4.0 | 0.00 | 0.00 | 0.00 | 14 | 1016.4 |
| 20260509172416 | 83 | 180 | 3.0 | 4.0 | 0.00 | 0.00 | 0.00 | 16 | 1016.9 |
| 20260509171416 | 82 | 113 | 2.0 | 3.0 | 0.00 | 0.00 | 0.00 | 16 | 1016.5 |
| 20260509170416 | 81 | 203 | 3.0 | 4.0 | 0.00 | 0.00 | 0.00 | 16 | 1016.5 |
| 20260509165416 | 80 | 158 | 3.0 | 5.0 | 0.00 | 0.00 | 0.00 | 17 | 1016.5 |
| 20260509164456 | 81 | 158 | 3.0 | 5.0 | 0.00 | 0.00 | 0.00 | 17 | 1016.8 |
| 20260509163416 | 81 | 158 | 1.0 | 2.0 | 0.00 | 0.00 | 0.00 | 17 | 1016.8 |
| 20260509162416 | 79 | 225 | 3.0 | 5.0 | 0.00 | 0.00 | 0.00 | 17 | 1016.6 |
| 20260509161417 | 78 | 0.0 | 0.0 | 0.00 | 0.00 | 0.00 | 17 | 1016.4 | |
| 20260509160416 | 77 | 158 | 1.0 | 3.0 | 0.00 | 0.00 | 0.00 | 18 | 1016.4 |
| 20260509155416 | 76 | 135 | 1.0 | 4.0 | 0.00 | 0.00 | 0.00 | 18 | 1016.2 |
| 20260509154416 | 76 | 203 | 2.0 | 4.0 | 0.00 | 0.00 | 0.00 | 18 | 1016.1 |
| 20260509153416 | 75 | 225 | 4.0 | 4.0 | 0.00 | 0.00 | 0.00 | 19 | 1016.1 |
| 20260509152416 | 76 | 225 | 2.0 | 5.0 | 0.00 | 0.00 | 0.00 | 19 | 1016.3 |
| 20260509151416 | 74 | 225 | 3.0 | 5.0 | 0.00 | 0.00 | 0.00 | 20 | 1016.1 |
| 20260509150416 | 74 | 0.0 | 0.0 | 0.00 | 0.00 | 0.00 | 20 | 1016.1 | |
| 20260509145416 | 74 | 0.0 | 0.0 | 0.00 | 0.00 | 0.00 | 20 | 1016.2 | |
| 20260509144456 | 73 | 0.0 | 0.0 | 0.00 | 0.00 | 0.00 | 20 | 1016.4 | |
| 20260509143416 | 73 | 0.0 | 0.0 | 0.00 | 0.00 | 0.00 | 20 | 1016.4 | |
| 20260509142416 | 72 | 0.0 | 1.0 | 0.00 | 0.00 | 0.00 | 21 | 1016.7 | |
| 20260509141416 | 71 | 0.0 | 0.0 | 0.00 | 0.00 | 0.00 | 22 | 1016.4 | |
| 20260509140415 | 70 | 0.0 | 2.0 | 0.00 | 0.00 | 0.00 | 24 | 1016.4 | |
| 20260509135416 | 69 | 0.0 | 0.0 | 0.00 | 0.00 | 0.00 | 25 | 1016.6 | |
| 20260509134415 | 69 | 0.0 | 0.0 | 0.00 | 0.00 | 0.00 | 27 | 1016.3 | |
| 20260509133416 | 68 | 0.0 | 0.0 | 0.00 | 0.00 | 0.00 | 27 | 1016.3 | |
| 20260509132415 | 65 | 0.0 | 0.0 | 0.00 | 0.00 | 0.00 | 28 | 1015.8 | |
| 20260509131415 | 62 | 0.0 | 0.0 | 0.00 | 0.00 | 0.00 | 29 | 1015.1 | |
| 20260509130415 | 62 | 0.0 | 0.0 | 0.00 | 0.00 | 0.00 | 29 | 1014.9 | |
| 20260509125416 | 62 | 0.0 | 0.0 | 0.00 | 0.00 | 0.00 | 28 | 1015.1 | |
| 20260509124416 | 62 | 0.0 | 0.0 | 0.00 | 0.00 | 0.00 | 29 | 1014.9 | |
| 20260509123415 | 62 | 0.0 | 0.0 | 0.00 | 0.00 | 0.00 | 28 | 1014.8 | |
| 20260509122416 | 62 | 0.0 | 0.0 | 0.00 | 0.00 | 0.00 | 27 | 1014.6 | |
| 20260509121436 | 63 | 0.0 | 0.0 | 0.00 | 0.00 | 0.00 | 26 | 1014.4 | |
| 20260509120416 | 63 | 0.0 | 0.0 | 0.00 | 0.00 | 0.00 | 27 | 1014.4 | |
| 20260509115415 | 63 | 0.0 | 0.0 | 0.00 | 0.00 | 0.00 | 26 | 1014.1 | |
| 20260509114416 | 63 | 0.0 | 0.0 | 0.00 | 0.00 | 0.00 | 26 | 1014.1 | |
| 20260509113415 | 63 | 0.0 | 0.0 | 0.00 | 0.00 | 0.00 | 26 | 1014.1 | |
| 20260509112416 | 64 | 0.0 | 0.0 | 0.00 | 0.00 | 0.00 | 25 | 1014.4 | |
| 20260509111416 | 64 | 0.0 | 0.0 | 0.00 | 0.00 | 0.00 | 25 | 1014.4 | |
| 20260509110416 | 65 | 0.0 | 1.0 | 0.00 | 0.00 | 0.00 | 24 | 1014.3 | |
| 20260509105436 | 65 | 0.0 | 0.0 | 0.00 | 0.00 | 0.00 | 24 | 1014.3 | |
| 20260509104416 | 65 | 0.0 | 0.0 | 0.00 | 0.00 | 0.00 | 24 | 1014.2 | |
| 20260509103435 | 66 | 0.0 | 0.0 | 0.00 | 0.00 | 0.00 | 23 | 1014.1 | |
| 20260509102416 | 66 | 0.0 | 0.0 | 0.00 | 0.00 | 0.00 | 23 | 1014.1 | |
| 20260509101415 | 65 | 0.0 | 0.0 | 0.00 | 0.00 | 0.00 | 22 | 1014.1 | |
| 20260509100436 | 66 | 0.0 | 0.0 | 0.00 | 0.00 | 0.00 | 22 | 1014.1 | |
| 20260509095416 | 66 | 0.0 | 0.0 | 0.00 | 0.00 | 0.00 | 22 | 1014.3 | |
| 20260509094415 | 66 | 0.0 | 0.0 | 0.00 | 0.00 | 0.00 | 21 | 1014.2 | |
| 20260509093416 | 66 | 0.0 | 0.0 | 0.00 | 0.00 | 0.00 | 21 | 1014.2 | |
| 20260509092416 | 67 | 0.0 | 0.0 | 0.00 | 0.00 | 0.00 | 20 | 1014.2 | |
| 20260509091415 | 68 | 0.0 | 0.0 | 0.00 | 0.00 | 0.00 | 20 | 1014.2 | |
| 20260509090415 | 68 | 0.0 | 0.0 | 0.00 | 0.00 | 0.00 | 20 | 1014.2 | |
| 20260509085416 | 69 | 0.0 | 0.0 | 0.00 | 0.00 | 0.00 | 20 | 1014.3 | |
| 20260509084416 | 69 | 0.0 | 0.0 | 0.00 | 0.00 | 0.00 | 19 | 1014.6 | |
| 20260509083416 | 69 | 0.0 | 0.0 | 0.00 | 0.00 | 0.00 | 18 | 1014.6 | |
| 20260509082416 | 69 | 0.0 | 0.0 | 0.00 | 0.00 | 0.00 | 18 | 1014.3 | |
| 20260509081415 | 70 | 0.0 | 0.0 | 0.00 | 0.00 | 0.00 | 18 | 1014.5 | |
| 20260509080416 | 71 | 0.0 | 0.0 | 0.00 | 0.00 | 0.00 | 17 | 1014.5 | |
| 20260509075415 | 71 | 0.0 | 0.0 | 0.00 | 0.00 | 0.00 | 17 | 1014.6 | |
| 20260509074415 | 70 | 0.0 | 0.0 | 0.00 | 0.00 | 0.00 | 17 | 1014.6 | |
| 20260509073415 | 71 | 0.0 | 0.0 | 0.00 | 0.00 | 0.00 | 16 | 1014.7 | |
| 20260509072416 | 71 | 0.0 | 0.0 | 0.00 | 0.00 | 0.00 | 16 | 1014.4 | |
| 20260509071415 | 71 | 0.0 | 0.0 | 0.00 | 0.00 | 0.00 | 16 | 1014.4 | |
| 20260509070415 | 72 | 0.0 | 0.0 | 0.00 | 0.00 | 0.00 | 15 | 1014.7 | |
| 20260509065415 | 72 | 113 | 2.0 | 3.0 | 0.00 | 0.00 | 0.00 | 15 | 1014.6 |
| 20260509064415 | 72 | 0.0 | 0.0 | 0.00 | 0.00 | 0.00 | 15 | 1014.7 | |
| 20260509063416 | 72 | 0.0 | 0.0 | 0.00 | 0.00 | 0.00 | 15 | 1014.7 | |
| 20260509062435 | 72 | 90 | 1.0 | 2.0 | 0.00 | 0.00 | 0.00 | 16 | 1014.2 |
| 20260509061415 | 71 | 0.0 | 0.0 | 0.00 | 0.00 | 0.00 | 16 | 1014.5 | |
| 20260509060415 | 72 | 0.0 | 0.0 | 0.00 | 0.00 | 0.00 | 16 | 1014.7 | |
| 20260509055416 | 72 | 68 | 3.0 | 4.0 | 0.00 | 0.00 | 0.00 | 16 | 1014.3 |
| 20260509054435 | 73 | 0.0 | 0.0 | 0.00 | 0.00 | 0.00 | 16 | 1014.3 | |
| 20260509053416 | 72 | 0.0 | 0.0 | 0.00 | 0.00 | 0.00 | 15 | 1014.4 | |
| 20260509052416 | 72 | 0.0 | 0.0 | 0.00 | 0.00 | 0.00 | 17 | 1014.1 | |
| 20260509051416 | 73 | 0.0 | 0.0 | 0.00 | 0.00 | 0.00 | 16 | 1014.4 | |
| 20260509050416 | 73 | 0.0 | 0.0 | 0.00 | 0.00 | 0.00 | 15 | 1014.4 | |
| 20260509045416 | 74 | 0.0 | 0.0 | 0.00 | 0.00 | 0.00 | 15 | 1014.1 | |
| 20260509044415 | 75 | 0.0 | 0.0 | 0.00 | 0.00 | 0.00 | 15 | 1014.3 | |
| 20260509043435 | 75 | 0.0 | 0.0 | 0.00 | 0.00 | 0.00 | 15 | 1014.3 | |
| 20260509042416 | 75 | 0.0 | 0.0 | 0.00 | 0.00 | 0.00 | 15 | 1013.6 | |
| 20260509041416 | 74 | 0.0 | 0.0 | 0.00 | 0.00 | 0.00 | 16 | 1013.5 | |
| 20260509040416 | 76 | 0.0 | 0.0 | 0.00 | 0.00 | 0.00 | 15 | 1013.6 | |
| 20260509035456 | 77 | 0.0 | 0.0 | 0.00 | 0.00 | 0.00 | 14 | 1013.2 | |
| 20260509034415 | 77 | 0.0 | 0.0 | 0.00 | 0.00 | 0.00 | 14 | 1013.1 | |
| 20260509033415 | 77 | 0.0 | 0.0 | 0.00 | 0.00 | 0.00 | 14 | 1013.0 | |
| 20260509032416 | 77 | 0.0 | 1.0 | 0.00 | 0.00 | 0.00 | 14 | 1012.8 | |
| 20260509031416 | 77 | 0.0 | 0.0 | 0.00 | 0.00 | 0.00 | 14 | 1012.8 | |
| 20260509030416 | 77 | 0.0 | 0.0 | 0.00 | 0.00 | 0.00 | 15 | 1012.7 | |
| 20260509025416 | 78 | 135 | 1.0 | 2.0 | 0.00 | 0.00 | 0.00 | 14 | 1012.9 |
| 20260509024415 | 79 | 0.0 | 0.0 | 0.00 | 0.00 | 0.00 | 13 | 1012.7 | |
| 20260509023456 | 79 | 113 | 1.0 | 3.0 | 0.00 | 0.00 | 0.00 | 13 | 1012.7 |
| 20260509022416 | 79 | 0.0 | 1.0 | 0.00 | 0.00 | 0.00 | 13 | 1012.0 | |
| 20260509021456 | 80 | 0.0 | 0.0 | 0.00 | 0.00 | 0.00 | 12 | 1011.9 | |
| 20260509020415 | 80 | 0.0 | 0.0 | 0.00 | 0.00 | 0.00 | 12 | 1011.9 | |
| 20260509015416 | 82 | 0.0 | 0.0 | 0.00 | 0.00 | 0.00 | 11 | 1011.4 | |
| 20260509014416 | 83 | 0.0 | 0.0 | 0.00 | 0.00 | 0.00 | 11 | 1011.4 | |
| 20260509013416 | 84 | 0.0 | 0.0 | 0.00 | 0.00 | 0.00 | 10 | 1011.5 | |
| 20260509012415 | 85 | 0.0 | 0.0 | 0.00 | 0.00 | 0.00 | 10 | 1011.4 | |
| 20260509011416 | 85 | 0.0 | 0.0 | 0.00 | 0.00 | 0.00 | 10 | 1011.4 | |
| 20260509010416 | 85 | 315 | 5.0 | 8.0 | 0.00 | 0.00 | 0.00 | 10 | 1011.4 |
| 20260509005416 | 85 | 315 | 5.0 | 9.0 | 0.00 | 0.00 | 0.00 | 10 | 1011.7 |
| 20260509004416 | 86 | 293 | 1.0 | 4.0 | 0.00 | 0.00 | 0.00 | 10 | 1011.7 |
| 20260509003415 | 86 | 315 | 4.0 | 6.0 | 0.00 | 0.00 | 0.00 | 10 | 1011.8 |
| 20260509002416 | 86 | 315 | 3.0 | 8.0 | 0.00 | 0.00 | 0.00 | 10 | 1011.8 |
| 20260509001415 | 86 | 338 | 4.0 | 5.0 | 0.00 | 0.00 | 0.00 | 9 | 1011.7 |
| 20260509000418 | 86 | 293 | 2.0 | 5.0 | 0.00 | 0.00 | 0.00 | 9 | 1011.8 |
| 20260508235415 | 86 | 315 | 2.0 | 6.0 | 0.00 | 0.00 | 0.00 | 9 | 1011.9 |
| 20260508234415 | 86 | 315 | 3.0 | 5.0 | 0.00 | 0.00 | 0.00 | 9 | 1012.0 |
| 20260508233416 | 86 | 293 | 5.0 | 7.0 | 0.00 | 0.00 | 0.00 | 9 | 1011.9 |
| 20260508232415 | 85 | 338 | 4.0 | 5.0 | 0.00 | 0.00 | 0.00 | 10 | 1011.7 |
| 20260508231416 | 86 | 293 | 6.0 | 9.0 | 0.00 | 0.00 | 0.00 | 9 | 1012.1 |
| 20260508230416 | 87 | 225 | 6.0 | 12.0 | 0.00 | 0.00 | 0.00 | 9 | 1012.1 |
| 20260508225416 | 86 | 0.0 | 0.0 | 0.00 | 0.00 | 0.00 | 9 | 1011.9 | |
| 20260508224415 | 86 | 293 | 5.0 | 10.0 | 0.00 | 0.00 | 0.00 | 9 | 1012.0 |
| 20260508223416 | 86 | 0.0 | 1.0 | 0.00 | 0.00 | 0.00 | 10 | 1012.0 | |
| 20260508222415 | 86 | 293 | 2.0 | 5.0 | 0.00 | 0.00 | 0.00 | 10 | 1012.5 |
| 20260508221415 | 85 | 315 | 2.0 | 5.0 | 0.00 | 0.00 | 0.00 | 10 | 1012.6 |
| 20260508220436 | 85 | 293 | 4.0 | 7.0 | 0.00 | 0.00 | 0.00 | 9 | 1012.8 |
| 20260508215415 | 85 | 225 | 2.0 | 4.0 | 0.00 | 0.00 | 0.00 | 6 | 1012.8 |
| 20260508214415 | 86 | 315 | 4.0 | 8.0 | 0.00 | 0.00 | 0.00 | 6 | 1013.0 |
| 20260508213416 | 85 | 225 | 2.0 | 5.0 | 0.00 | 0.00 | 0.00 | 9 | 1013.2 |
| 20260508212436 | 86 | 270 | 1.0 | 5.0 | 0.00 | 0.00 | 0.00 | 8 | 1013.5 |
| 20260508211415 | 85 | 315 | 2.0 | 4.0 | 0.00 | 0.00 | 0.00 | 8 | 1013.4 |
| 20260508210435 | 85 | 315 | 4.0 | 6.0 | 0.00 | 0.00 | 0.00 | 9 | 1013.5 |
| 20260508205415 | 85 | 270 | 4.0 | 7.0 | 0.00 | 0.00 | 0.00 | 10 | 1014.3 |
| 20260508204415 | 87 | 315 | 3.0 | 4.0 | 0.00 | 0.00 | 0.00 | 9 | 1014.3 |